FW8585 Weather Reports


time (UTC)temp
F
wind
direction
speed
knots
gust
knots
rain 1hr
in
rain 24hr
in
rain mn
in
humidity
%
barometer
mb
20260510044804 72 202 0.9 1.7 0.00 0.30 0.30 92 1009.5
20260510043805 72 180 1.7 3.5 0.00 0.30 0.30 92 1009.6
20260510042804 71 180 0.9 1.7 0.00 0.30 0.30 92 1009.8
20260510041903 71 180 0.9 1.7 0.00 0.30 0.30 92 1009.9
20260510041804 71 180 0.9 1.7 0.00 0.30 0.30 92 1010.0
20260510040903 71 168 2.6 5.2 0.02 0.30 0.30 92 1009.9
20260510040002 71 180 2.6 4.3 0.14 0.30 0.30 92 1009.7
20260510035020 71 180 2.6 4.3 0.15 0.30 0.30 92 1009.7
20260510032306 71 157 1.7 2.6 0.26 0.30 0.30 92 1009.7
20260510030306 71 171 5.2 8.7 0.18 0.18 0.16 90 1009.9
20260510024404 72 168 3.5 5.2 0.13 0.13 0.12 84 1010.1
20260510024303 72 202 1.7 3.5 0.12 0.12 0.11 83 1010.1
20260510023322 74 225 0.0 0.9 0.05 0.05 0.05 81 1009.8
20260510022307 74 186 4.3 6.1 0.04 0.04 0.04 83 1009.6
20260510021326 76 174 9.6 10.4 0.00 0.00 0.00 82 1008.5
20260509191733 88 270 0.9 2.6 0.00 0.00 0.00 62 1007.0
20260509185733 85 247 0.0 2.6 0.00 0.00 0.00 68 1007.2
20260509184733 85 247 0.9 3.5 0.00 0.00 0.00 66 1007.5
20260509183833 86 271 2.6 3.5 0.00 0.00 0.00 66 1007.4
20260509182833 85 301 0.0 2.6 0.00 0.00 0.00 68 1007.6
20260509181833 84 261 3.5 5.2 0.00 0.00 0.00 68 1007.9
20260509181734 84 247 4.3 6.1 0.00 0.00 0.00 68 1007.8
20260509180734 84 260 3.5 5.2 0.00 0.00 0.00 70 1007.9
20260509175733 84 283 1.7 4.3 0.00 0.00 0.00 70 1008.3
20260509172732 85 251 4.3 6.1 0.00 0.00 0.00 73 1008.2
20260509170732 82 247 0.9 2.6 0.00 0.00 0.00 77 1008.1
20260509165832 81 224 3.5 7.0 0.00 0.00 0.00 78 1007.9
20260509164834 81 223 1.7 3.5 0.00 0.00 0.00 79 1008.1
20260509163832 81 247 0.0 0.9 0.00 0.00 0.00 81 1008.2
20260509163750 81 247 1.7 2.6 0.00 0.00 0.00 81 1008.1
20260509161731 80 360 1.7 1.7 0.00 0.00 0.00 80 1008.5
20260509161632 80 360 1.7 2.6 0.00 0.00 0.00 81 1008.5
20260509161533 80 360 1.7 3.5 0.00 0.00 0.00 81 1008.5
20260509160531 80 263 0.9 2.6 0.00 0.00 0.00 83 1008.4
20260509160433 79 270 0.0 0.0 0.00 0.00 0.00 83 1008.4
20260509160350 79 270 0.0 0.0 0.00 0.00 0.00 83 1008.5
20260509155432 79 337 0.0 1.7 0.00 0.00 0.00 83 1008.6
20260509154434 79 152 0.0 0.9 0.00 0.00 0.00 87 1008.7
20260509153433 79 157 0.0 0.9 0.00 0.00 0.00 88 1008.8
20260509152431 78 157 0.0 0.0 0.00 0.00 0.00 88 1008.9
20260509151433 78 157 1.7 2.6 0.00 0.00 0.00 90 1008.8
20260509150432 78 157 1.7 2.6 0.00 0.00 0.00 92 1008.7
20260509145531 78 135 0.0 0.9 0.00 0.00 0.00 92 1008.7
20260509143532 77 180 0.0 0.9 0.00 0.00 0.00 92 1008.3
20260509142532 77 180 0.0 0.0 0.00 0.00 0.00 92 1008.3
20260509141533 77 180 0.9 1.7 0.00 0.00 0.00 93 1008.1
20260509140532 77 180 0.0 0.0 0.00 0.00 0.00 92 1008.2
20260509134533 77 225 0.0 0.0 0.00 0.00 0.00 93 1008.6
20260509133431 77 225 0.0 0.0 0.00 0.00 0.00 94 1008.5
20260509132434 76 225 0.0 0.0 0.00 0.00 0.00 94 1008.6
20260509131432 76 225 0.0 0.0 0.00 0.00 0.00 93 1008.8
20260509130431 76 225 0.0 0.9 0.00 0.00 0.00 94 1008.6
20260509125434 75 225 0.0 0.0 0.00 0.00 0.00 94 1008.8
20260509123535 75 225 0.0 0.0 0.00 0.00 0.00 94 1008.7
20260509122632 75 225 0.0 0.0 0.00 0.00 0.00 94 1008.9
20260509122533 75 225 0.0 0.0 0.00 0.00 0.00 94 1008.7
20260509120647 74 225 0.0 0.0 0.00 0.00 0.00 94 1008.1
20260509115730 74 225 0.0 0.0 0.00 0.00 0.00 94 1007.9
20260509114732 74 225 0.9 1.7 0.00 0.00 0.00 94 1007.9
20260509105831 74 45 0.0 0.0 0.00 0.00 0.00 94 1008.2
20260509104832 74 22 0.0 0.9 0.00 0.00 0.00 94 1008.6
20260509103834 74 22 0.0 0.0 0.00 0.00 0.00 94 1008.4
20260509102834 74 22 0.0 0.9 0.00 0.00 0.00 94 1008.1
20260509101831 74 22 0.0 0.0 0.00 0.00 0.00 94 1007.8
20260509095833 74 337 0.0 0.0 0.00 0.00 0.00 94 1007.1
20260509095731 74 337 0.0 0.0 0.00 0.00 0.00 94 1007.2
20260509094733 74 337 0.0 0.0 0.00 0.00 0.00 94 1007.2
20260509093830 74 337 0.0 0.0 0.00 0.00 0.00 94 1007.4
20260509092832 74 337 0.0 0.0 0.00 0.00 0.00 94 1007.9
20260509091831 74 337 0.0 0.0 0.00 0.00 0.00 94 1007.8
20260509090833 74 337 0.0 0.0 0.00 0.00 0.00 94 1007.9
20260509085832 74 337 0.0 0.9 0.00 0.00 0.00 94 1008.0
20260509085732 74 340 0.9 2.6 0.00 0.00 0.00 94 1008.0
20260509084731 74 347 0.9 1.7 0.00 0.00 0.00 94 1007.9
20260509084631 74 337 0.9 1.7 0.00 0.00 0.00 94 1008.0
20260509083632 74 15 0.9 2.6 0.00 0.00 0.00 94 1007.8
20260509082731 74 157 0.0 0.0 0.00 0.00 0.00 94 1007.9
20260509081732 74 157 0.0 0.0 0.00 0.00 0.00 94 1007.7
20260509080732 74 157 0.9 1.7 0.00 0.00 0.00 94 1007.7
20260509080633 74 157 1.7 2.6 0.00 0.00 0.00 94 1007.7
20260509075631 74 157 1.7 2.6 0.00 0.00 0.00 94 1007.7
20260509075532 74 157 2.6 3.5 0.00 0.00 0.00 94 1007.5
20260509074532 74 157 2.6 3.5 0.00 0.00 0.00 94 1007.8
20260509072631 74 180 1.7 2.6 0.00 0.00 0.00 94 1008.0
20260509070732 74 180 0.0 0.9 0.00 0.00 0.00 94 1008.1
20260509065731 74 180 0.0 0.0 0.00 0.00 0.00 94 1008.1
20260509065632 74 180 0.0 0.0 0.00 0.00 0.00 94 1008.1
20260509064730 74 180 0.9 0.9 0.00 0.00 0.00 94 1008.1
20260509063731 74 180 0.9 1.7 0.00 0.00 0.00 94 1008.2
20260509062732 74 180 0.9 0.9 0.00 0.00 0.00 94 1008.2
20260509062630 74 180 0.0 0.9 0.00 0.00 0.00 94 1008.0
20260509061633 74 180 0.0 0.9 0.00 0.00 0.00 94 1008.3
20260509061530 74 180 0.0 0.0 0.00 0.00 0.00 94 1008.3
20260509061434 74 180 0.0 0.9 0.00 0.00 0.00 94 1008.5
20260509060531 74 157 0.9 1.7 0.00 0.00 0.00 94 1008.4
20260509060431 74 157 1.7 1.7 0.00 0.00 0.00 94 1008.3
20260509055431 74 157 1.7 2.6 0.00 0.00 0.00 94 1008.5
20260509054433 74 180 1.7 1.7 0.00 0.00 0.00 94 1008.5
20260509053330 74 202 1.7 2.6 0.00 0.00 0.00 94 1008.6
20260509052331 74 202 0.0 0.0 0.00 0.00 0.00 94 1008.6
20260509050331 74 180 1.7 3.5 0.00 0.00 0.00 94 1008.4
20260509045429 74 202 0.9 1.7 0.00 0.00 0.00 94 1008.6
20260509045330 74 192 2.6 4.3 0.00 0.00 0.00 94 1008.5